EHI
0 0 0 0 0 0 0 0 0 0 0 0 1 2 4 7 11 15 17 17 16 13 14 23 32 36 35 31 26 23 22 23 21 16 10 6 4 5 6 6 6 5 5 5
0 0 0 0 0 0 0 0 0 0 1 1 2 3 5 9 13 17 19 20 18 15 17 27 38 45 48 43 35 29 26 26 25 21 14 8 4 4 5 7 7 7 8 9
0 0 0 0 0 0 0 0 0 0 1 2 3 4 6 10 14 18 21 24 23 21 22 32 44 54 60 58 47 36 29 29 28 25 19 12 7 5 5 7 9 10 12 13
0 0 0 0 0 0 0 0 0 0 1 1 1 2 4 8 12 15 20 25 26 25 25 33 45 56 63 65 56 42 34 31 29 26 21 17 13 9 7 8 9 10 10 11
0 0 0 0 0 0 0 0 0 0 0 0 0 0 1 4 6 9 15 24 28 28 28 32 42 54 62 64 58 48 40 34 31 27 23 20 17 13 9 7 7 7 7 8
0 0 0 0 0 0 0 0 0 0 0 0 0 0 0 1 3 6 12 22 29 31 32 34 41 52 62 64 62 57 50 43 36 31 26 23 19 15 11 8 6 5 7 8
0 0 0 0 0 0 0 0 0 0 0 0 0 0 0 1 3 6 11 19 27 31 35 38 44 55 63 66 68 66 59 51 43 36 29 23 18 16 12 8 6 7 8 9
0 0 0 0 0 0 0 0 0 0 0 0 0 0 1 1 4 7 12 17 23 31 38 43 48 56 62 65 69 69 63 53 46 39 30 21 16 14 11 8 7 8 8 9
0 0 0 0 0 0 0 0 0 0 0 0 0 1 2 4 6 11 16 19 22 30 39 43 46 52 57 58 60 63 60 53 48 41 31 20 14 11 9 8 7 7 7 7
0 0 0 0 0 0 0 0 0 0 0 0 0 1 3 6 10 15 19 22 24 28 35 40 43 47 50 50 52 56 56 54 49 43 34 23 14 9 7 6 6 6 5 6
0 0 0 0 0 0 0 0 0 0 0 0 0 0 2 5 10 15 19 24 26 27 30 36 41 43 44 46 47 49 53 52 48 43 38 29 20 12 8 6 6 7 7 6
0 0 0 0 0 0 0 0 0 0 0 0 0 1 3 7 11 15 21 26 28 27 27 32 38 40 42 43 42 43 47 49 47 42 39 34 27 20 14 10 9 9 9 9
0 0 0 0 0 0 0 0 0 0 0 0 0 3 8 14 18 21 26 30 29 26 26 30 35 38 38 38 38 40 43 45 43 39 36 34 31 26 22 16 12 11 11 11
0 0 0 0 0 0 0 0 0 0 0 0 1 7 16 23 26 28 32 34 32 28 27 31 35 36 34 33 34 36 39 41 41 36 32 32 32 29 24 20 15 12 11 12
0 0 0 0 0 0 0 0 0 0 0 0 3 10 19 26 30 32 35 35 32 30 30 32 35 35 33 32 33 34 35 38 39 35 30 29 30 28 26 24 21 15 12 11
0 0 0 0 0 0 0 0 0 0 0 2 6 13 20 27 31 32 34 33 30 29 30 32 34 34 33 33 34 33 32 33 37 36 31 28 29 30 31 31 28 21 15 13
0 0 0 0 0 0 0 1 1 2 2 5 10 16 24 29 31 31 32 30 27 26 27 29 30 31 30 29 32 32 29 29 34 37 33 31 31 34 37 37 33 27 21 18
0 0 0 0 0 0 1 2 4 5 6 10 13 19 26 31 32 31 29 28 25 23 23 23 24 25 24 24 27 31 31 30 34 37 35 34 34 36 38 38 35 31 26 24
0 0 0 0 0 0 1 3 5 7 11 14 16 20 27 32 32 29 26 26 24 22 21 19 19 20 21 22 26 31 33 34 36 38 37 36 35 35 36 37 35 32 29 27
0 0 0 0 0 1 3 5 5 8 13 17 19 22 27 30 29 25 25 26 26 25 24 22 21 22 23 25 28 31 33 36 37 37 36 35 34 32 32 33 33 32 29 28
0 0 0 0 0 1 3 6 6 9 13 17 20 23 26 26 24 24 26 27 28 28 29 28 28 28 27 27 30 31 32 34 34 32 30 31 30 28 28 30 31 29 28 28
0 0 0 0 0 1 3 4 6 8 11 13 17 21 23 23 23 25 27 27 27 28 30 30 30 29 28 28 29 30 29 29 28 26 24 24 26 27 28 28 28 28 27 26
1 0 0 1 1 2 3 3 5 7 8 9 12 17 20 22 23 23 24 23 24 25 27 27 27 25 25 26 27 27 25 23 22 21 20 20 23 26 28 26 25 25 25 24
2 1 1 2 3 5 6 5 6 7 8 8 10 13 16 19 20 19 19 18 19 20 21 22 21 20 21 23 24 24 23 20 19 20 20 20 22 25 26 23 21 21 22 22
2 1 2 3 3 5 6 7 8 9 8 8 9 10 13 15 16 16 16 15 15 15 16 17 17 16 17 19 20 20 20 19 20 20 20 20 22 23 22 19 16 16 16 16
3 2 2 2 2 2 5 8 9 9 8 7 7 9 12 13 15 15 14 13 12 12 13 14 15 14 15 16 16 16 17 19 20 20 20 21 23 22 19 15 12 12 11 10
Wind_Speed
4 3 3 7 6 7 5 4 4 5 4 5 5 5 8 8 10 11 10 9 10 11 10 10 11 11 10 9 8 8 8 6 5 3 3 3 2 2 2 2 3 4 4 4
4 4 10 7 4 4 3 3 4 4 3 4 5 4 5 7 10 12 13 12 11 9 9 10 10 11 11 11 9 8 8 8 7 4 3 3 3 2 2 2 2 4 4 4
7 9 6 4 4 3 3 5 6 4 2 5 7 2 2 3 3 4 7 9 11 12 13 12 12 11 11 11 11 10 9 8 7 6 3 2 2 1 0 1 2 3 4 4
6 8 5 5 5 4 5 6 5 4 5 1 5 3 5 5 5 7 7 8 10 11 11 12 12 12 13 12 11 9 9 8 7 7 6 5 4 3 4 3 2 3 3 4
6 5 4 5 7 4 7 4 2 2 5 3 2 4 5 3 6 9 10 11 12 11 12 13 13 13 13 12 11 9 8 8 7 7 7 6 4 3 3 2 3 2 2 3
8 6 5 6 6 5 3 3 4 5 5 1 4 4 5 6 9 9 9 9 9 10 10 11 11 10 9 10 9 9 8 7 7 7 7 7 6 5 4 3 3 3 2 2
6 7 5 3 3 5 4 6 4 5 4 5 3 3 7 7 7 9 9 9 9 9 8 9 9 10 9 10 9 9 9 7 7 7 7 7 7 7 6 5 4 4 2 2
3 7 6 4 6 5 4 10 8 5 5 4 3 3 6 5 2 3 5 5 6 8 8 9 9 10 10 10 9 9 9 7 7 7 6 6 6 4 4 5 4 4 3 4
6 7 7 5 5 7 4 4 9 8 3 1 3 3 5 2 3 3 3 3 4 6 8 8 8 8 8 9 9 9 9 8 7 7 6 5 5 5 5 5 4 4 3 4
8 4 6 5 2 1 7 7 6 6 5 2 3 3 4 4 4 4 4 5 5 5 7 7 7 7 7 7 6 7 8 8 7 7 7 6 5 5 5 4 4 4 4 4
6 5 6 3 1 3 0 3 5 5 6 7 3 7 7 10 8 8 7 8 8 7 8 8 7 7 6 6 7 7 7 7 6 6 6 5 5 5 5 4 5 5 4 4
4 6 3 6 5 4 4 5 7 5 4 5 5 7 5 8 8 8 7 7 7 6 7 8 8 8 6 6 6 7 7 6 6 6 5 5 5 5 5 5 5 4 4 4
4 7 2 7 8 6 2 1 4 6 5 4 5 5 2 4 5 6 8 8 7 7 6 5 6 7 7 6 4 5 6 6 4 4 4 4 4 5 6 6 5 4 4 4
5 5 7 7 7 3 3 4 1 6 4 3 5 5 2 4 6 6 7 8 7 7 6 6 5 4 4 4 4 4 4 5 5 5 5 5 5 5 5 5 5 4 4 3
6 4 2 3 3 1 2 3 1 2 6 7 6 6 7 7 8 8 9 9 8 7 6 6 5 4 4 3 3 4 4 4 5 5 5 6 5 4 4 4 4 4 4 4
5 3 3 4 3 4 4 4 2 0 3 6 7 3 4 6 7 8 9 10 8 7 6 6 5 4 3 3 3 3 3 4 5 5 5 4 4 4 5 4 4 4 4 4
3 4 3 2 4 4 4 4 1 2 0 6 6 5 6 8 8 8 8 8 8 7 6 5 5 4 4 4 5 5 4 3 4 4 4 5 5 5 5 6 5 6 5 4
5 4 3 1 4 1 6 3 4 6 5 3 5 6 7 9 8 7 7 8 6 5 5 4 4 3 3 3 3 3 2 3 4 4 4 5 5 5 4 5 6 6 5 5
6 6 3 3 1 2 5 4 2 4 5 5 5 6 6 6 8 5 3 5 6 5 4 4 3 3 3 3 3 3 2 3 3 3 4 4 5 6 6 7 6 5 5 5
5 5 5 3 3 3 4 7 3 7 4 6 4 5 5 4 5 1 2 4 5 4 3 3 2 2 2 2 2 3 2 3 4 4 4 4 5 5 6 6 6 5 5 5
4 4 3 3 2 3 5 8 5 5 3 3 4 4 3 3 4 4 3 4 4 3 2 3 3 2 2 2 3 3 3 4 4 4 3 4 4 5 5 4 4 4 4 4
3 3 2 3 2 4 7 5 4 3 1 3 4 4 4 4 4 4 4 4 4 3 2 3 2 1 0 1 2 2 3 3 2 2 3 4 4 3 3 4 4 4 4 4
2 4 4 4 4 3 1 3 2 4 4 4 5 4 4 4 4 3 3 2 2 2 1 2 2 2 2 1 0 1 3 2 1 2 3 3 2 2 2 3 4 4 4 4
3 3 4 3 1 2 4 4 4 5 5 4 5 5 5 3 3 3 2 2 2 1 1 1 2 1 2 2 2 1 2 1 2 2 3 3 2 2 2 2 3 4 4 4
2 2 3 2 1 3 4 3 3 5 5 5 5 5 5 4 3 2 2 1 1 1 1 1 1 0 1 1 2 2 2 1 1 2 2 3 3 3 2 1 1 3 3 5
2 2 3 3 3 2 2 0 3 4 4 3 4 4 3 2 0 1 1 1 1 1 1 1 0 1 2 2 2 3 2 1 1 1 2 2 2 3 3 3 1 3 1 2
Wind_Direction
325 56 253 240 211 200 200 215 233 239 206 153 163 176 183 181 171 173 174 173 176 186 181 173 172 170 166 166 167 167 165 171 160 153 151 156 175 187 186 191 186 180 178 172
358 276 244 238 243 212 201 210 249 271 191 134 133 163 182 190 185 179 175 175 180 183 177 175 173 171 171 173 175 173 172 174 173 171 166 164 164 178 185 189 182 185 179 177
219 242 253 255 253 252 241 196 214 210 79 81 96 37 205 213 186 187 181 178 175 181 181 179 177 176 174 178 180 182 180 178 178 169 149 135 101 78 107 200 200 200 184 181
238 246 254 265 256 223 255 231 207 183 117 194 132 180 247 205 196 203 199 194 192 185 180 181 181 179 182 185 182 179 177 179 180 169 163 164 170 185 203 196 195 202 188 185
246 246 245 251 251 228 236 237 193 159 130 101 62 136 263 184 203 217 211 202 194 189 183 183 187 186 185 183 180 179 175 179 179 176 174 173 178 190 190 178 180 199 204 200
246 252 222 229 256 244 225 33 25 56 75 75 230 159 244 213 205 211 209 207 193 184 187 187 185 178 179 177 176 174 173 179 179 177 175 175 179 181 176 180 183 198 206 214
291 289 269 224 277 313 78 82 26 0 18 247 250 157 235 237 213 195 191 198 190 180 176 175 173 170 172 172 172 173 172 176 178 178 181 182 183 181 183 186 189 190 195 209
221 277 268 238 198 206 185 140 159 193 210 261 317 222 249 245 237 168 163 166 167 170 173 178 172 168 168 169 170 171 173 175 176 179 186 186 185 181 188 190 187 193 200 208
188 249 272 262 225 169 175 176 166 140 160 152 280 288 322 13 78 82 103 119 147 162 166 174 165 159 161 165 171 173 172 173 178 181 182 186 187 187 191 192 187 191 199 204
169 233 277 285 340 267 165 156 101 118 147 202 281 251 216 210 166 142 143 150 149 148 147 153 160 161 158 161 168 170 174 180 183 182 186 190 191 191 190 189 195 197 203 204
154 179 287 343 202 231 313 110 113 123 150 156 203 258 220 190 180 169 165 155 151 151 147 149 157 158 158 163 168 171 175 176 180 185 191 193 196 197 192 194 202 203 204 194
152 136 238 262 257 211 174 177 143 152 204 160 160 257 251 187 175 159 152 137 136 142 145 151 152 150 154 162 169 173 175 177 182 185 187 195 198 195 195 202 202 197 199 197
119 108 71 341 343 360 36 129 145 137 127 146 156 249 297 145 141 143 135 128 127 125 126 130 137 151 160 160 163 175 180 182 178 175 180 189 198 199 200 201 196 192 196 199
105 108 152 189 220 260 313 313 94 119 139 178 196 191 176 153 144 137 127 126 125 123 128 128 135 145 152 157 163 183 184 182 179 181 187 195 205 207 202 192 185 188 192 195
82 103 146 206 230 249 305 309 349 152 177 174 191 177 189 173 155 146 132 126 119 119 124 130 133 136 136 146 160 177 191 189 185 185 195 203 208 204 184 179 176 180 187 193
59 91 58 2 8 32 2 338 353 267 158 147 134 167 187 151 124 121 133 134 133 137 142 142 138 139 150 157 162 170 195 192 186 191 199 199 199 197 183 181 171 173 186 187
51 82 74 317 327 37 348 312 27 25 5 147 162 188 150 125 129 141 137 133 141 149 149 150 158 167 173 176 171 174 185 179 190 200 203 201 196 193 189 185 179 187 191 187
119 91 109 66 37 199 246 285 87 77 34 64 122 131 139 139 139 129 127 134 139 146 151 162 167 168 185 184 162 157 161 173 188 198 199 197 198 199 196 189 192 196 191 189
131 130 112 107 129 270 303 338 15 92 28 19 102 107 107 110 88 68 91 125 136 138 144 160 178 176 180 180 173 158 177 183 184 203 207 201 196 197 199 202 202 195 188 193
66 96 114 124 143 215 268 310 323 88 37 350 69 100 119 99 101 196 142 112 105 97 107 130 146 138 167 204 177 162 186 192 205 213 214 206 202 204 203 204 202 195 185 190
45 47 104 140 167 261 286 315 28 90 218 323 64 85 105 123 163 175 136 107 98 89 97 113 112 124 189 186 164 178 201 220 224 215 207 206 208 206 202 198 198 188 182 179
145 130 149 131 146 256 313 22 80 171 186 62 67 80 89 99 101 110 114 110 102 88 79 95 96 64 344 151 155 188 228 238 230 208 211 218 216 211 197 183 182 177 176 179
110 173 165 157 188 236 13 88 117 124 93 73 69 61 79 90 93 99 100 100 99 98 89 92 99 51 12 2 126 209 249 249 218 206 222 227 223 212 185 173 179 179 171 183
353 41 83 71 28 50 55 63 68 80 84 78 78 74 75 93 97 90 87 71 63 47 53 85 93 61 5 345 348 294 254 222 190 209 220 209 194 191 191 179 176 178 181 183
316 38 65 73 334 38 33 38 69 75 69 61 58 72 78 79 88 107 115 111 91 23 7 84 115 139 281 306 321 314 287 211 198 235 224 207 190 176 164 153 167 182 192 190
308 147 142 201 228 176 238 343 70 70 55 53 60 55 60 74 122 100 112 148 132 110 64 53 7 290 293 307 315 316 310 260 196 244 236 208 190 169 160 153 98 37 120 146